Location: Zerbst
(51.9650°N, 12.0766°E)
Time: 11:46:55
(UTC+02:00)

ISS - Pass Details

Date: 13 May 2017
Orbit: 401 x 407 km, 51.6° (Epoch: 25 September)

Event Time Altitude Azimuth Distance (km) Brightness Sun altitude
Exits shadow 03:26:53 23° 185° (S) 941 -2.5 -13.4°
Maximum altitude 03:28:00 28° 150° (SSE) 808 -2.6 -13.3°
Drops below altitude 10° 03:30:54 10° 89° (E) 1,483 -0.5 -13.1°
Sets 03:33:09 0° 78° (ENE) 2,344 0.8 -12.9°
